Terug naar catalogus

STARLINK-32877

ActiefCommunicatieVLEO
NORAD 62960·PAYLOAD·🇺🇸 United States

Gelanceerd Feb 11, 2025 vanaf Vandenberg Space Force Base

Loading…

Volgende Passages (komende 24 uur)

TLE

VersSource: CelesTrak SupGP

Epoch: Sep 15, 2026, 02:14 UTC

1 62960C 25029N   26258.09354167 -.00020681  00000+0 -61103-3 0  2589
2 62960  53.1582  70.7316 0001140  79.9438 287.0603 15.34401102    17

Volg STARLINK-32877 in realtime met AllMySat

Download on the App Store